Location: Unspecified
(0.0000°N, 0.0000°E)
Time: 18:49:41
(UTC+00:00)

Courier 1B - Pass Details

Date: 19 November 2019
Orbit: 963 x 1209 km, 28.3° (Epoch: 06 December)

Event Time Altitude Azimuth Distance (km) Brightness Sun altitude
Rises 15:41:49 0° 271° (W) 3,734 11.5 28.9°
Reaches altitude 10° 15:45:00 10° 257° (WSW) 2,823 11.6 28.2°
Maximum altitude 15:50:24 24° 205° (SSW) 2,049 10.2 27.0°
Drops below altitude 10° 15:56:03 10° 154° (SSE) 2,971 10.1 25.6°
Sets 15:59:32 0° 140° (SE) 3,975 10.5 24.8°
